Regional Weather Roundup
Issued by NWS Little Rock, AR

Home | Current Version | Previous Version | Text Only | Print | Product List | Glossary On
Versions: 1 2 3 4 5 6 7 8 9 10 11 12 13 14 15 16 17 18 19 20 21 22 23 24 25 26 27 28 29 30 31 32 33 34 35 36 37 38 39 40 41 42 43 44 45 46 47 48 49 50
000
ASUS44 KLZK 290305
RWRLZK

WEATHER ROUNDUP FOR ARKANSAS
NATIONAL WEATHER SERVICE LITTLE ROCK AR
1000 PM CDT THU MAY 28 2015

NOTE: "FAIR" INDICATES FEW OR NO CLOUDS BELOW 12,000 FEET WITH NO
SIGNIFICANT WEATHER AND/OR OBSTRUCTIONS TO VISIBILITY.

ARZ001-003-010-029-290400-
NORTHWEST ARKANSAS

CITY           SKY/WX    TMP DP  RH WIND       PRES   REMARKS
FAYETTEVILLE   PTCLDY    65  64  97 CALM      30.02R
FORT SMITH     PTCLDY    70  64  81 E8        29.99R
HARRISON       PTCLDY    66  62  87 SE8       30.04R
BENTONVILLE    CLOUDY    70  63  78 CALM      30.03R
ROGERS         CLOUDY    70  65  84 SE5       30.04R
SILOAM SPGS    MOCLDY    66  61  82 SE5       30.03R
HIGHFILL       MOCLDY    68  65  90 S3        30.02R
$$

ARZ004-005-016-290400-
NORTH CENTRAL ARKANSAS

CITY           SKY/WX    TMP DP  RH WIND       PRES   REMARKS
BATESVILLE     PTCLDY    66  64  94 CALM      30.05R
FLIPPIN        PTCLDY    70  63  78 SE3       30.03R
MTN HOME       CLOUDY    67  64  90 S5        30.04R
$$

ARZ040-041-290400-
WEST CENTRAL ARKANSAS

CITY           SKY/WX    TMP DP  RH WIND       PRES   REMARKS
MENA           PTCLDY    68  64  88 CALM      30.04R
MOUNT IDA      MOCLDY    67  65  93 CALM      30.04R
$$

ARZ009-017-025-026-028-290400-
NORTHEAST ARKANSAS

CITY           SKY/WX    TMP DP  RH WIND       PRES   REMARKS
CORNING        CLOUDY    73  72  94 SE6       30.05R
JONESBORO      MOCLDY    75  68  78 SE7       30.05R
NEWPORT        PTCLDY    74  70  87 SE7       30.06R
WALNUT RIDGE   CLOUDY    73  66  78 S5        30.05R
BLYTHEVILLE    CLEAR     75  69  81 SE7       30.07R
$$

ARZ022-023-033-042-044-290400-
CENTRAL ARKANSAS

CITY           SKY/WX    TMP DP  RH WIND       PRES   REMARKS
LITTLE ROCK    MOCLDY    70  65  84 CALM      30.04R
N LITTLE ROCK  MOCLDY    69  68  95 SE5       30.04R
JACKSONVILLE   PTCLDY    68  67  99 CALM      30.04R
SEARCY         PTCLDY    67  67 100 CALM      30.06R FOG
HOT SPRINGS    MOCLDY    68  66  93 E6        30.05R
RUSSELLVILLE   MOCLDY    69  67  93 E3        30.04R
CLINTON        FAIR      66  66 100 CALM      30.07R FOG
$$

ARZ036-290400-
EAST ARKANSAS

CITY           SKY/WX    TMP DP  RH WIND       PRES   REMARKS
WEST MEMPHIS   PTCLDY    72  69  90 S6        30.05R
$$

ARZ050-053-066-070-073-290400-
SOUTHWEST ARKANSAS

CITY           SKY/WX    TMP DP  RH WIND       PRES   REMARKS
ARKADELPHIA    FAIR      69  69 100 N3        30.04R
CAMDEN         MOCLDY    66  64  94 CALM      30.03S
TEXARKANA      PTCLDY    72  68  87 SE6       30.02R
EL DORADO      MOCLDY    69  66  90 E5        30.03S
DE QUEEN       PTCLDY    69  67  93 E18       29.99R
$$

ARZ056-057-069-290400-
SOUTHEAST ARKANSAS

CITY           SKY/WX    TMP DP  RH WIND       PRES   REMARKS
PINE BLUFF     PTCLDY    69  67  93 S3        30.04S
STUTTGART      PTCLDY    72  66  83 CALM      30.05R
MONTICELLO     MOCLDY    71  69  93 CALM      30.04F

$$





USA.gov is the U.S. government's official web portal to all federal, state and local government web resources and services.